Theta_e
300 292 291 290 292 293 295 295 295 295 294 293 292 291 289 289 290 293 294 296 297 293 292 293 294 296 297 298 300 301 302 301 302 303 304 307 307 307 308 309 311 313 314 319 328 341 344 344 344 343 344 345 346 350 346 347 347 348 346 347 346 347 347 347 345 344 343 342 342 342 340 340 343 343 344 344 344 344 344 345 345 343 343 341 344 342
299 292 291 294 295 295 295 296 296 295 294 293 291 290 288 290 288 292 292 295 297 293 291 294 293 294 297 299 299 301 301 299 300 301 303 304 305 307 308 308 309 312 317 321 324 341 346 346 342 343 345 344 342 345 347 345 346 347 347 346 346 347 347 347 345 343 343 343 342 340 339 340 341 342 341 340 343 344 346 345 344 343 341 341 343 344
293 290 294 296 298 298 298 297 296 294 293 292 290 290 288 289 292 293 294 295 295 293 290 293 291 293 296 297 299 300 300 301 302 302 303 304 304 306 307 308 310 312 316 317 324 330 340 345 345 344 345 345 344 344 345 345 344 346 346 347 346 347 347 346 345 344 343 344 345 344 342 341 341 344 344 342 343 346 346 345 346 344 342 341 342 345
290 293 297 299 299 297 296 296 295 294 293 290 290 288 286 290 288 285 292 294 295 293 291 292 291 293 295 297 298 300 300 301 302 303 303 304 304 304 306 308 310 312 313 316 321 322 327 341 342 343 343 344 345 344 345 345 345 346 344 345 346 347 347 346 345 344 345 345 347 348 347 345 342 341 345 346 345 345 346 345 346 343 344 341 342 343
291 296 300 299 298 297 294 295 294 292 290 292 291 290 288 289 289 289 289 293 294 294 294 292 290 290 293 293 295 298 300 301 302 302 302 304 306 308 309 311 314 314 314 316 321 321 322 340 339 341 342 344 343 343 344 344 344 346 344 344 346 346 346 346 345 345 345 345 345 346 347 346 343 343 341 341 340 341 344 344 344 343 344 343 343 343
294 298 300 297 297 296 294 292 293 292 289 290 292 292 292 292 290 291 291 291 288 288 292 291 284 285 291 292 293 296 297 297 299 299 300 302 305 306 309 311 313 315 316 317 319 323 321 339 340 342 342 343 343 343 344 344 345 347 345 344 345 346 346 345 346 346 345 343 343 342 340 337 338 335 336 336 336 338 340 341 345 344 343 343 343 342
294 298 298 295 295 295 294 293 295 294 289 288 289 294 293 292 292 291 291 289 283 282 289 293 283 281 291 290 293 294 295 295 298 299 299 300 302 305 307 310 311 314 314 314 315 319 326 340 341 343 343 343 343 344 345 345 346 347 346 345 345 345 344 346 347 347 345 344 344 343 341 339 338 336 337 340 341 341 343 345 344 343 343 343 343 343
298 297 297 296 295 293 292 290 293 294 290 287 294 295 294 292 291 291 290 289 287 291 291 291 289 283 283 289 293 296 294 294 295 297 299 300 301 304 307 310 310 310 312 312 314 316 327 336 340 340 343 343 343 345 345 345 346 346 346 346 345 345 345 346 347 346 345 344 344 343 342 340 339 338 338 341 342 343 344 345 345 344 343 343 343 344
297 295 296 294 294 293 291 294 296 296 292 291 295 296 293 293 292 291 289 288 288 287 283 287 290 284 283 289 294 295 292 293 294 296 298 299 301 303 305 307 309 310 310 311 313 316 328 339 342 342 343 345 345 345 344 345 345 346 347 346 347 346 346 347 347 345 346 345 345 344 342 339 340 341 340 341 343 342 343 344 344 344 342 343 343 344
298 298 298 297 294 291 295 297 297 296 292 295 297 297 295 295 293 292 290 288 288 284 280 284 288 282 282 288 289 292 291 292 294 295 297 299 300 301 303 307 308 308 310 309 312 315 317 336 342 343 345 344 344 345 346 345 346 346 347 346 345 346 346 347 346 346 345 345 345 344 342 340 339 341 341 341 341 341 342 344 343 344 342 341 343 343
300 303 303 299 296 297 297 298 298 297 297 298 296 293 293 292 291 292 291 289 286 280 282 286 288 285 279 286 289 289 290 292 295 297 298 299 301 302 303 304 306 307 308 308 310 315 317 321 344 345 345 344 344 344 345 345 345 346 346 345 343 345 346 346 345 345 344 345 345 344 342 341 339 341 341 339 340 341 341 342 343 343 343 342 343 344
299 299 298 301 302 300 300 297 299 299 298 296 293 291 290 289 291 289 288 289 280 278 284 288 287 287 278 283 289 293 296 296 295 296 297 298 299 301 303 303 305 307 307 308 309 311 316 319 334 341 343 343 343 343 343 343 344 345 346 345 343 343 344 345 345 344 344 344 345 344 342 341 341 341 341 339 339 340 340 341 342 342 343 342 343 344
294 295 299 300 304 299 297 295 295 297 296 294 292 290 284 281 282 279 283 278 278 278 285 289 289 284 282 287 290 293 295 297 298 297 298 300 300 301 302 304 304 306 306 307 309 311 313 317 320 339 342 344 342 341 342 343 344 345 345 345 343 341 345 345 345 344 344 344 343 342 342 342 342 342 342 340 341 341 340 341 342 342 341 342 342 342
291 296 296 297 298 299 296 290 290 290 294 292 289 287 283 278 277 274 278 281 281 285 289 288 290 283 287 289 293 293 295 297 299 300 300 300 302 302 302 303 304 306 307 307 310 311 312 314 319 333 337 336 341 342 342 343 343 344 344 344 343 343 346 345 346 344 343 343 343 343 342 342 343 342 343 341 341 342 342 342 343 342 342 342 342 342
283 285 291 295 291 299 298 295 294 292 292 292 293 289 285 283 279 274 278 276 277 280 286 290 284 281 282 286 294 295 297 297 299 299 301 302 302 305 305 304 305 306 308 310 310 312 312 314 316 322 334 332 340 342 342 342 343 343 343 343 342 343 345 346 345 344 343 343 344 344 343 343 343 343 343 342 344 343 343 343 343 343 344 343 343 344
288 287 294 299 297 298 295 298 298 295 292 293 294 293 287 284 289 278 282 281 281 280 280 284 283 288 287 294 296 297 297 297 298 299 300 300 302 303 304 305 307 306 308 310 311 312 314 315 316 319 341 342 342 342 342 341 342 341 342 343 342 343 344 345 344 343 343 343 344 344 344 345 345 343 344 343 344 344 344 343 344 343 344 345 345 346
289 285 295 296 298 296 296 298 297 297 283 290 290 285 288 294 289 283 284 287 285 282 278 287 285 288 293 294 295 295 295 295 296 297 298 298 300 303 304 305 306 308 307 310 312 313 315 316 318 318 325 339 340 342 342 342 342 342 342 343 342 342 344 344 343 343 343 343 343 344 345 346 345 344 343 343 344 345 345 344 345 345 345 346 346 346
283 284 293 293 292 297 300 299 298 298 297 293 285 288 295 295 293 285 277 281 280 276 279 285 282 283 284 281 293 293 293 294 295 296 297 299 300 300 304 307 306 309 309 310 312 316 318 319 319 321 321 339 339 341 341 343 343 343 343 343 343 342 342 344 344 343 342 343 343 343 345 346 346 344 344 345 345 345 345 344 344 345 345 345 346 346
292 282 289 294 294 297 299 298 295 298 299 293 290 299 287 281 280 286 282 274 274 274 277 282 284 284 285 285 290 290 291 293 294 296 296 297 298 299 302 304 305 306 314 310 311 313 314 315 315 318 322 337 338 339 342 343 343 343 344 344 344 342 343 344 344 344 343 343 343 344 345 345 345 345 344 345 346 346 344 344 344 344 345 346 346 345
293 282 285 294 294 295 296 294 286 290 296 298 297 292 295 289 284 281 283 283 281 276 276 278 282 280 288 288 291 290 292 293 294 294 295 297 299 300 300 302 303 304 310 314 312 312 313 314 315 316 318 336 340 339 342 342 342 342 343 344 344 343 344 344 343 343 343 344 344 344 345 346 345 346 344 345 345 345 343 344 344 344 345 345 345 345
287 291 280 289 295 294 288 292 288 290 287 289 289 287 289 288 292 289 287 284 280 277 278 277 276 282 289 293 292 292 294 295 295 295 296 297 299 300 302 303 303 304 307 311 312 314 313 315 320 320 320 325 341 342 343 342 341 342 342 343 343 342 343 343 344 344 344 344 344 344 344 345 345 345 345 345 345 344 344 344 343 343 345 346 345 345
287 287 282 286 287 288 290 295 294 293 292 290 288 287 289 285 283 279 278 288 285 281 277 276 275 283 291 296 294 294 295 295 296 296 297 297 299 300 301 305 304 305 307 311 310 312 317 319 317 317 317 319 331 336 338 340 340 341 343 342 342 342 342 342 343 344 344 345 345 345 345 346 346 345 345 345 345 344 344 343 343 344 345 344 345 345
293 289 286 283 286 288 292 296 298 297 296 293 292 288 290 288 287 282 276 281 285 285 285 283 278 281 293 296 297 295 295 295 297 297 297 299 300 301 303 304 306 306 307 308 310 310 312 315 317 313 315 316 331 332 335 338 339 339 340 341 341 340 341 342 343 345 345 345 345 345 346 346 346 346 345 345 344 344 343 344 344 344 344 344 344 344
295 286 284 285 290 292 295 297 296 295 293 291 292 292 290 286 287 285 284 286 282 284 281 280 277 282 294 297 298 298 298 298 299 298 298 299 303 304 305 306 306 307 306 308 308 310 310 311 316 313 313 314 315 324 332 335 336 338 339 340 340 340 341 341 342 344 344 344 345 346 346 346 346 345 345 345 345 344 344 344 344 343 343 343 343 342
286 288 285 281 282 286 289 289 290 293 293 289 288 290 291 291 291 290 289 289 282 283 284 280 275 281 293 297 297 296 297 297 297 299 301 299 303 304 305 304 305 307 307 307 308 309 310 310 310 311 313 314 314 316 326 329 333 334 337 338 337 335 338 340 341 342 343 344 344 345 346 346 345 345 345 345 345 344 344 344 343 343 342 342 342 342
288 286 284 279 277 275 276 278 281 284 286 290 292 291 292 290 289 286 282 284 279 283 285 281 280 286 292 295 294 295 296 297 298 299 300 302 302 303 304 306 306 308 307 307 309 309 309 309 309 310 312 312 314 315 327 329 329 332 334 334 335 335 334 334 336 339 341 343 344 344 345 345 345 344 344 345 345 345 345 345 344 343 342 342 341 341
288 291 288 285 283 281 283 286 289 289 288 285 289 290 290 292 292 291 287 283 281 284 283 285 286 286 289 291 292 294 296 295 296 298 299 299 300 302 304 303 304 307 309 310 312 313 311 311 312 312 316 317 315 316 327 327 328 331 331 332 333 332 331 331 334 335 340 342 343 344 344 345 345 345 345 345 345 346 346 345 344 343 342 342 341 341
288 286 288 288 287 287 289 289 291 291 286 288 288 289 291 290 291 289 284 282 288 284 280 287 289 287 288 290 292 293 295 296 297 298 298 299 300 300 302 303 306 306 308 311 311 311 312 316 320 322 321 319 320 318 328 329 329 330 330 330 332 332 331 332 331 332 335 340 343 343 344 345 345 345 345 345 346 346 345 345 344 343 343 341 340 340
287 285 289 289 287 290 291 290 291 290 290 290 290 290 289 290 290 287 287 289 289 284 281 287 289 287 289 291 294 294 296 296 297 297 299 300 300 301 303 304 304 304 307 306 310 310 311 312 316 318 317 318 320 319 321 327 328 330 331 332 333 334 332 332 332 331 330 336 341 342 344 345 345 345 345 345 345 345 345 344 344 343 343 341 341 340
291 286 289 290 287 288 289 290 291 290 289 290 290 290 290 290 290 290 289 290 289 288 290 290 290 290 292 292 294 296 298 298 298 299 299 298 299 300 300 303 303 305 305 308 308 311 310 312 313 316 317 318 318 317 316 328 326 327 329 330 331 332 332 331 330 331 331 334 341 343 344 344 344 344 345 345 344 344 344 344 343 342 342 341 341 340
291 286 290 288 285 286 291 293 293 292 290 287 291 292 291 291 291 291 291 291 291 290 291 291 290 289 294 296 297 298 299 299 299 298 297 298 299 299 301 303 301 303 307 306 308 313 311 314 314 315 316 317 320 325 326 325 328 328 327 329 331 331 332 334 332 331 330 332 340 343 343 343 343 344 343 344 344 344 344 343 343 342 341 340 340 340
293 287 291 288 284 285 291 291 291 291 291 289 289 289 288 288 287 289 287 292 289 288 289 290 288 289 294 297 298 298 297 297 297 297 297 299 299 300 300 300 301 302 304 305 307 309 311 310 313 316 316 318 321 322 321 321 326 327 328 331 331 331 332 334 333 330 328 328 337 341 342 343 343 343 343 343 343 344 344 343 343 341 340 340 340 339
293 290 287 287 284 285 289 292 289 288 288 285 284 286 288 289 291 291 292 294 294 294 288 285 288 294 295 297 295 296 297 297 297 297 298 299 300 300 300 301 301 302 304 305 306 307 309 310 312 315 319 321 320 319 320 321 319 326 325 326 329 331 331 333 332 330 328 329 329 336 342 342 342 342 342 342 343 343 343 342 342 341 339 339 339 339
294 292 289 291 284 285 290 291 288 285 279 279 289 291 288 286 287 286 288 292 294 295 291 293 294 296 297 297 296 297 297 297 299 300 301 301 301 301 301 302 302 303 305 307 307 307 311 312 313 315 318 319 322 322 321 322 320 323 327 326 331 330 330 332 332 331 330 331 331 334 337 341 342 341 342 343 342 343 342 342 341 340 340 340 339 338
294 294 290 293 287 286 289 289 285 279 280 290 292 291 290 290 291 290 292 294 294 295 294 294 295 296 298 298 299 298 299 300 301 301 302 302 303 302 302 302 303 304 305 308 310 311 313 318 319 321 324 322 318 320 322 321 322 322 328 330 326 325 326 330 332 333 334 334 335 335 335 336 340 340 340 342 342 342 341 341 340 340 339 339 338 338
293 293 291 289 290 289 287 286 278 279 288 288 290 290 292 292 293 292 291 294 295 294 293 292 294 296 297 298 299 301 303 301 301 302 303 304 306 305 303 304 305 306 308 310 311 312 312 312 313 315 321 323 323 322 317 318 324 322 324 329 329 327 327 325 328 331 331 333 334 336 338 339 336 334 340 341 341 341 340 340 340 339 339 338 339 338
298 295 292 288 293 284 285 285 284 289 287 288 286 287 287 284 285 286 283 290 295 294 293 292 293 294 295 297 299 300 302 304 302 299 303 303 306 306 306 306 307 308 309 311 311 311 313 315 318 322 323 324 324 321 320 319 320 320 321 328 326 327 326 325 323 326 331 329 332 334 337 339 339 336 339 340 340 340 340 340 339 339 338 337 337 337
300 294 296 290 287 290 285 284 284 283 278 282 288 292 295 294 293 293 291 289 295 295 295 292 291 293 294 295 297 299 302 299 296 297 302 304 304 306 306 307 307 307 308 308 308 310 312 316 319 320 322 323 323 324 324 326 326 322 320 320 330 327 326 327 326 327 328 330 331 332 335 338 339 340 340 340 340 340 340 340 339 339 337 337 336 335
300 299 296 291 288 289 286 283 281 278 281 287 287 293 295 296 295 294 289 284 291 294 293 292 290 292 293 294 297 298 297 294 294 298 303 310 311 312 311 309 308 309 309 311 314 312 315 320 320 320 320 322 321 323 325 326 325 321 321 321 324 326 325 326 327 327 327 328 332 333 333 336 336 340 339 340 340 340 339 338 338 338 338 337 337 336
295 293 292 290 287 288 286 284 281 283 282 287 293 295 296 296 295 291 279 278 289 292 291 289 289 290 293 297 300 298 296 294 296 300 308 310 311 312 312 311 311 313 313 314 314 315 317 319 318 319 320 321 322 325 325 325 325 325 324 323 325 322 324 327 327 329 331 332 333 334 334 334 331 334 337 339 339 339 339 338 338 337 337 337 336 335
291 290 292 287 288 288 286 286 287 286 290 295 296 297 297 297 292 281 275 283 290 292 295 295 292 294 296 298 300 297 300 303 303 306 308 309 310 312 312 314 313 314 313 314 313 312 315 315 317 318 320 321 322 323 323 323 323 323 324 325 326 325 326 325 325 328 332 332 332 332 332 332 328 327 330 338 339 339 337 337 337 337 335 335 334 333
290 290 290 291 288 286 287 285 285 287 292 297 299 299 298 292 280 279 288 296 295 296 298 297 295 297 299 300 301 301 304 307 308 309 309 310 311 312 314 313 314 315 316 315 315 316 318 318 320 321 321 322 322 322 323 323 323 323 323 324 325 327 329 330 328 327 328 332 331 331 332 331 329 329 335 339 338 337 336 337 337 336 335 334 333 332
289 287 287 287 290 290 288 284 283 279 290 299 299 297 299 287 287 294 296 298 299 298 299 298 298 298 300 300 302 304 305 306 308 309 309 310 311 311 313 314 314 316 317 318 318 319 319 319 320 321 322 323 324 324 323 323 323 323 323 323 326 330 330 330 328 327 325 326 331 332 331 332 332 336 339 338 337 336 335 335 335 335 334 333 332 331
296 288 287 289 292 285 284 282 281 289 294 300 299 289 295 299 300 298 298 296 301 301 299 299 299 301 302 302 302 303 305 305 307 310 310 311 312 313 315 316 316 316 317 319 319 320 321 320 321 321 323 324 325 325 325 325 323 322 322 323 326 329 331 329 329 328 327 325 327 330 333 334 336 338 338 337 336 335 334 334 334 334 333 332 331 330
297 293 293 288 295 288 286 290 297 298 300 302 303 301 303 303 304 303 302 301 301 300 302 300 300 302 303 303 303 304 304 305 305 309 310 311 312 313 313 314 315 316 317 317 318 320 319 320 320 320 321 323 325 326 326 326 325 324 323 325 326 327 330 329 327 327 328 328 328 329 333 336 338 338 337 336 335 333 333 333 333 332 332 331 331 330
301 300 301 297 294 298 298 299 302 301 301 303 303 305 303 305 306 305 303 300 301 302 303 301 302 302 303 304 303 304 304 306 307 309 310 310 311 312 313 315 316 317 317 317 317 318 319 319 320 320 320 322 324 326 326 327 327 325 325 328 327 327 328 328 327 325 328 329 329 330 333 335 336 337 336 335 335 333 333 332 331 331 331 330 330 329
300 300 298 293 297 293 288 298 298 298 301 302 301 304 306 305 305 305 304 304 302 302 302 304 303 303 304 305 305 304 305 307 307 309 310 310 310 311 312 312 314 316 316 316 317 316 318 319 319 320 320 321 324 325 326 327 327 327 329 329 330 330 329 328 327 324 326 329 328 329 332 334 335 335 335 334 334 333 333 332 332 330 328 329 329 329
294 302 296 296 295 291 291 297 299 301 302 304 303 302 304 304 304 305 306 305 304 304 303 303 303 303 305 305 306 305 306 307 307 308 309 310 310 310 311 312 313 314 316 316 317 318 318 319 319 320 320 321 323 324 325 326 327 328 330 332 333 332 332 330 327 327 328 331 328 325 327 329 314 326 334 333 333 332 332 332 332 330 329 328 329 328
298 300 291 296 293 295 298 299 299 300 301 302 303 304 305 305 303 304 304 304 305 303 303 303 304 304 304 304 305 306 305 306 308 309 310 310 310 310 311 312 313 314 315 315 317 317 318 318 319 319 320 321 323 324 325 326 327 330 332 332 332 333 331 327 324 325 327 326 325 324 324 328 327 329 333 333 332 333 332 331 331 330 330 332 332 331
298 293 297 295 290 290 291 295 298 292 292 299 302 304 305 304 304 304 304 304 304 303 303 303 303 304 305 305 306 306 305 305 307 309 310 310 310 310 310 312 312 313 314 316 316 317 319 317 318 318 319 322 324 325 325 327 328 329 330 331 331 330 329 327 327 325 324 326 324 323 323 323 326 329 331 332 332 331 331 315 316 324 331 330 317 312
295 296 296 291 291 290 298 299 300 300 300 303 301 303 304 304 304 303 303 303 304 304 304 303 302 303 304 305 307 306 306 306 306 308 309 310 310 310 311 312 312 312 313 315 314 314 314 316 317 317 317 319 321 325 325 325 326 327 329 329 330 329 327 325 324 323 323 323 323 320 322 324 326 327 329 331 332 331 328 328 315 306 310 313 313 306
Wind_Speed
5 8 8 9 9 11 12 14 14 14 14 14 13 13 14 14 15 16 19 18 19 18 18 18 20 19 17 17 19 19 18 21 18 22 20 13 18 18 19 20 16 17 16 11 14 12 13 14 10 10 10 11 7 5 8 10 13 13 15 14 14 13 12 11 11 11 10 10 8 6 9 9 9 8 7 7 7 7 7 9 9 10 8 8 7 8
7 8 10 13 14 15 15 16 15 11 11 14 13 14 14 14 14 15 17 18 15 15 15 18 18 18 18 17 19 21 21 22 21 19 19 24 20 17 20 21 22 16 10 9 12 13 11 14 15 13 11 10 13 8 10 10 10 10 13 15 14 12 13 12 11 11 9 9 8 7 8 8 9 8 8 8 7 7 6 7 9 9 9 8 8 7
8 10 12 14 13 14 14 11 10 11 11 11 11 11 13 12 13 16 17 17 15 14 15 18 20 15 15 19 20 18 17 13 18 19 19 20 22 16 18 21 19 16 11 12 12 14 12 11 15 14 14 13 14 14 14 14 13 12 12 12 13 12 13 11 12 11 10 8 8 7 6 8 8 6 5 6 7 7 7 8 7 10 8 8 8 8
11 11 15 5 7 7 10 8 9 11 11 10 11 11 12 11 11 11 13 15 14 12 13 17 19 16 18 20 20 16 19 18 18 18 21 21 21 21 18 18 14 14 11 12 13 15 13 14 12 9 12 15 13 12 13 12 12 10 11 12 14 13 12 11 12 12 10 10 8 6 6 6 8 6 4 4 5 6 7 10 8 9 8 9 9 9
13 14 16 15 14 13 13 12 12 11 11 12 13 13 12 12 12 13 12 16 17 16 15 17 17 16 15 16 16 16 19 20 15 18 19 22 21 18 19 15 8 9 13 11 14 18 16 15 15 13 12 15 15 14 15 15 14 10 14 13 14 14 14 11 12 13 11 10 9 7 6 6 6 5 6 6 8 8 6 8 9 10 9 10 9 9
15 14 13 15 14 15 15 12 12 12 12 12 14 14 14 14 14 14 16 16 12 13 12 14 11 14 16 20 18 15 16 16 21 22 23 21 20 18 14 14 14 13 9 7 7 12 18 17 14 14 17 16 15 16 14 15 16 14 14 13 12 12 12 12 12 12 11 10 9 10 10 10 9 10 10 11 11 10 8 9 8 10 10 10 8 9
11 14 14 14 14 13 13 13 11 11 11 12 10 11 14 17 16 16 15 13 11 13 10 12 14 12 10 16 18 19 19 18 20 23 23 22 16 17 14 13 12 8 7 10 11 6 15 14 16 15 15 15 15 14 13 13 14 14 14 13 13 12 13 13 13 12 11 11 9 11 11 10 9 9 7 7 7 8 7 7 8 9 9 9 9 9
8 10 9 9 13 13 12 11 11 13 13 13 11 14 14 15 17 15 15 14 12 12 16 18 13 13 13 13 16 18 21 23 23 23 23 20 20 17 11 9 11 10 7 9 13 13 11 16 17 18 17 16 16 15 13 13 13 16 16 16 14 12 12 12 14 14 13 12 10 10 11 10 9 8 8 9 9 8 8 9 9 9 9 9 9 8
13 13 12 14 14 12 12 12 12 13 12 11 12 13 13 14 12 12 12 12 12 12 14 13 17 15 13 13 17 19 19 22 23 23 20 22 22 18 17 15 11 10 9 12 10 10 12 18 19 18 18 16 18 16 15 15 15 14 15 15 15 14 15 14 16 16 15 13 11 10 9 10 8 8 8 7 8 9 9 10 9 9 9 9 9 9
11 13 15 16 13 12 13 16 13 12 12 12 14 15 14 14 16 15 12 12 11 12 15 17 15 13 13 13 14 18 20 18 20 23 22 20 22 23 19 16 16 13 9 13 14 11 11 12 19 19 19 18 15 15 15 15 14 14 15 16 16 15 14 14 17 16 16 13 11 10 11 11 9 7 8 8 9 9 9 10 11 9 9 9 8 8
16 14 16 13 12 12 13 14 14 13 14 14 17 17 15 14 12 12 11 12 11 12 19 20 19 15 13 12 14 14 14 16 15 17 20 22 19 21 20 20 13 10 11 13 13 8 11 12 16 19 20 17 16 14 16 14 14 13 14 16 18 15 13 14 17 17 17 15 12 10 11 12 11 10 10 10 11 10 10 10 11 10 8 9 8 8
12 14 11 8 15 12 13 14 13 13 13 14 10 11 11 12 12 12 11 11 11 15 18 16 18 19 16 12 16 16 16 21 20 17 20 24 24 20 17 19 18 15 14 16 15 14 10 9 15 18 19 19 17 16 16 14 14 13 14 15 19 16 15 14 15 16 16 14 12 10 11 12 12 11 10 12 12 12 13 10 12 10 8 8 8 8
12 9 12 13 8 11 13 13 11 11 11 10 11 11 13 11 6 10 9 11 13 15 11 9 13 14 16 16 17 19 19 17 19 18 17 18 23 22 20 20 20 18 20 18 15 14 13 10 10 17 17 16 17 17 17 17 15 14 14 17 19 20 17 16 15 15 15 13 12 11 12 11 11 11 10 11 11 11 11 10 11 12 11 9 9 9
7 11 14 8 9 6 14 9 8 9 8 9 10 9 10 10 9 11 10 7 11 14 17 15 13 14 13 14 18 21 22 21 18 19 21 21 15 18 20 18 17 17 19 18 15 16 15 14 10 15 15 14 13 15 17 17 16 15 13 17 19 18 16 15 15 15 13 14 12 12 12 11 11 11 11 11 11 11 11 9 11 12 11 10 11 10
10 9 3 12 6 12 14 9 10 11 9 9 5 8 10 10 7 7 8 10 11 11 11 14 12 11 13 10 13 18 20 21 20 19 17 18 18 11 13 17 18 16 16 15 15 16 17 17 14 11 17 18 17 19 18 17 16 16 14 16 18 16 16 15 15 13 14 13 13 12 12 12 11 12 10 11 10 10 11 9 11 11 10 10 10 11
9 11 10 12 14 17 16 14 13 12 13 12 8 9 12 12 4 9 9 11 10 6 12 10 8 8 10 7 9 11 16 17 16 21 22 19 13 15 12 11 10 14 14 15 16 16 17 17 16 12 13 17 18 21 17 19 17 16 15 16 17 17 16 16 17 15 14 13 12 13 13 13 13 11 10 10 9 10 10 9 11 11 11 10 10 9
7 10 10 19 22 17 17 16 13 10 9 2 6 10 10 7 9 4 10 14 12 10 16 9 9 12 11 15 14 12 16 20 19 17 21 22 18 10 10 11 12 10 13 12 13 12 12 13 13 14 12 13 16 15 18 18 18 19 16 15 17 17 15 17 19 17 14 12 12 13 13 13 13 13 12 11 11 12 10 10 9 10 11 10 9 9
5 16 13 16 17 12 9 12 17 16 13 9 10 8 9 11 10 4 7 6 7 10 10 8 12 11 11 10 9 14 17 19 19 21 17 21 20 16 8 6 10 9 10 13 12 9 6 6 7 8 11 18 19 18 17 18 17 17 16 17 18 16 18 15 17 18 17 16 14 13 14 14 14 13 13 11 12 12 11 10 9 9 10 10 10 9
4 14 3 9 13 12 10 10 11 14 18 13 10 7 7 3 4 6 3 10 8 10 8 10 14 14 13 13 10 12 11 11 15 18 18 18 21 17 11 9 11 11 6 13 15 12 10 9 11 10 7 19 21 20 17 17 17 16 15 17 17 17 17 16 14 14 14 15 13 13 15 15 14 14 13 12 12 12 13 12 10 11 10 10 10 9
1 4 10 2 9 15 14 8 10 9 7 7 6 6 3 6 9 10 5 6 5 10 8 14 11 10 10 10 13 13 11 11 13 15 16 18 16 14 13 12 13 12 6 3 7 10 12 13 13 15 13 15 18 19 18 17 16 17 17 16 16 15 13 13 16 15 15 14 13 14 13 14 14 14 14 14 13 13 14 12 11 11 11 11 10 9
2 4 9 10 13 15 10 4 8 8 8 6 1 7 4 5 7 7 7 10 7 9 9 9 9 9 10 7 9 11 11 11 12 12 13 14 15 12 10 11 12 14 9 5 5 6 11 9 6 7 12 14 18 16 16 16 17 16 16 15 17 17 16 15 13 15 14 13 14 15 16 15 15 15 14 14 13 14 13 12 11 11 9 10 10 9
2 3 8 13 13 9 12 10 11 10 9 3 4 8 5 4 5 5 10 8 10 8 9 5 11 10 8 4 11 9 9 9 10 12 13 14 13 14 13 12 16 14 11 8 9 7 3 6 9 10 8 9 15 16 16 17 16 17 15 16 15 15 15 15 15 15 15 14 15 17 16 16 15 15 14 14 14 13 14 12 11 10 10 11 10 9
5 3 8 11 11 14 18 20 10 7 0 4 6 7 5 8 8 7 8 9 7 9 8 11 7 13 10 7 8 8 10 11 10 11 12 11 12 14 15 17 14 16 15 12 11 10 8 7 7 11 10 10 11 12 18 15 17 15 16 13 14 15 17 17 16 16 16 16 16 18 17 16 16 16 15 15 13 14 14 13 11 11 12 11 11 10
1 4 8 12 13 16 13 9 13 12 3 3 6 8 7 9 9 10 11 9 9 10 8 5 8 10 7 2 7 10 7 8 8 11 13 11 9 13 15 19 21 16 16 15 13 13 13 12 8 10 13 13 14 16 15 15 15 17 16 16 14 15 16 17 16 16 17 16 17 19 18 17 16 16 15 15 13 15 14 12 11 11 11 12 10 11
5 2 4 10 11 8 1 3 5 3 3 2 5 6 9 10 13 14 14 10 9 13 12 8 15 7 3 7 5 7 8 9 9 9 9 9 9 9 13 17 21 25 17 17 16 15 14 13 13 13 14 15 15 15 18 17 17 15 15 15 16 12 12 15 16 18 18 18 19 19 18 18 17 17 16 14 12 15 14 13 12 11 12 11 11 11
4 5 4 7 10 13 11 11 8 5 5 8 10 12 12 13 14 10 7 8 10 12 11 10 13 12 13 10 11 9 7 6 4 8 6 7 9 10 12 13 18 28 17 15 15 15 14 13 15 14 13 14 14 14 15 16 16 16 15 16 15 13 12 8 9 15 18 19 19 19 20 18 17 18 18 16 14 15 14 13 13 12 11 12 13 12
2 6 8 9 9 10 11 12 9 5 7 10 15 16 16 14 14 12 9 11 13 11 11 13 14 15 16 10 8 13 8 3 5 3 6 9 11 12 12 15 16 17 11 6 5 8 11 14 15 14 12 10 11 12 14 18 18 14 14 15 11 10 12 13 12 12 16 19 19 18 19 19 18 17 16 15 14 13 13 13 13 13 13 12 13 13
2 6 10 13 16 16 15 18 19 16 15 17 18 19 17 15 12 11 10 14 13 10 13 10 13 13 11 11 15 11 12 5 1 4 7 8 10 11 12 17 21 17 16 11 7 7 7 6 4 4 5 8 8 9 14 15 14 15 15 15 14 13 13 11 13 15 17 18 18 18 17 17 17 16 16 15 14 13 13 13 13 13 12 12 14 14
2 4 11 7 14 15 16 19 18 18 18 17 18 17 16 16 14 13 15 18 16 12 14 13 13 13 12 13 10 10 10 9 3 2 3 5 8 8 12 17 20 16 13 16 14 12 11 10 6 7 9 9 9 10 8 14 15 15 15 15 12 11 14 13 11 12 16 17 18 18 17 16 15 14 14 14 14 14 14 14 13 13 12 12 12 11
2 7 12 11 16 16 15 17 16 16 14 15 17 15 12 15 12 13 15 15 16 17 17 16 16 16 14 16 16 15 10 7 6 4 3 3 7 7 10 13 13 13 10 12 21 13 13 13 11 10 10 10 12 13 10 12 18 15 14 16 16 17 15 13 13 13 13 17 17 16 16 16 15 15 15 15 15 15 15 14 13 13 13 13 13 12
2 7 6 10 11 15 13 10 9 9 12 12 13 14 11 10 12 13 13 13 13 16 16 16 16 16 13 14 15 15 10 5 9 6 6 5 9 10 11 13 17 13 21 20 17 8 12 9 11 13 13 11 9 7 4 6 11 16 17 15 16 17 14 14 15 17 13 18 16 16 16 16 16 15 16 16 15 15 15 15 14 13 13 13 13 14
4 6 7 6 7 14 6 7 8 9 10 10 10 11 11 12 12 13 11 13 12 14 15 15 13 11 10 11 13 13 12 11 10 12 9 8 11 11 11 14 16 15 10 9 8 8 7 10 8 7 9 10 9 8 8 7 5 9 7 8 13 15 14 12 13 12 11 13 12 15 16 14 16 16 16 16 16 16 15 14 14 14 14 13 13 13
5 7 9 9 12 11 11 10 8 10 7 1 13 15 13 11 11 16 15 14 10 10 12 10 10 8 10 11 11 10 10 10 10 10 9 11 12 13 13 15 16 15 10 5 6 7 7 7 8 8 6 5 9 11 10 7 8 11 14 9 9 12 12 13 13 14 14 15 15 15 13 14 15 16 16 16 16 16 15 15 15 15 15 15 13 12
8 9 8 6 5 12 16 16 4 4 6 10 9 9 7 10 15 16 14 15 15 9 10 13 15 17 13 12 13 13 11 8 8 7 8 8 10 10 11 12 15 11 6 5 8 8 5 5 5 6 6 6 4 5 7 9 9 8 13 13 5 7 12 14 14 15 16 16 17 18 14 14 15 16 16 16 16 15 16 15 15 15 14 12 12 13
12 9 7 3 5 9 14 9 3 7 6 3 7 8 8 14 15 13 16 13 11 18 20 19 19 19 18 15 16 15 13 12 10 10 10 10 9 8 10 13 14 13 10 5 6 5 5 3 4 5 4 5 8 7 6 8 10 10 11 13 12 9 7 10 16 15 15 16 15 15 14 13 13 15 16 16 16 15 16 16 15 15 14 13 14 14
7 8 4 3 4 6 6 6 6 8 1 2 8 8 10 8 5 14 8 9 18 19 20 20 20 19 20 23 20 18 18 17 13 12 11 10 7 6 10 12 13 10 5 3 4 7 9 9 8 8 6 4 4 4 8 7 4 7 8 9 13 11 8 1 7 10 12 12 13 14 13 15 14 13 15 16 17 15 15 15 15 16 14 13 12 11
13 7 3 6 1 5 7 7 3 3 1 7 15 15 14 11 14 12 8 6 17 19 19 21 23 23 25 22 20 20 19 17 16 13 11 12 11 11 10 9 7 8 6 6 7 10 10 9 8 5 5 5 6 7 5 7 8 9 8 9 6 11 14 13 15 12 11 14 11 11 13 14 14 14 15 16 16 16 16 16 15 14 12 12 12 12
8 11 8 9 2 3 9 8 5 7 10 12 12 15 14 14 14 13 8 3 15 21 20 21 22 24 26 24 22 19 18 15 12 11 9 12 14 14 14 10 11 10 9 9 11 12 9 6 6 7 6 7 7 7 6 4 4 5 8 10 9 12 14 14 15 17 16 13 14 12 11 12 14 15 14 15 15 16 15 15 14 14 12 13 13 13
10 10 9 6 7 6 9 8 6 8 3 3 13 15 16 13 15 15 5 2 9 16 21 20 22 24 23 22 23 17 11 11 11 10 3 9 11 9 7 7 7 7 9 9 8 7 5 5 7 9 10 9 11 9 8 6 6 8 9 10 10 12 12 13 14 14 15 15 15 15 12 13 12 13 15 15 15 15 15 15 14 13 13 12 11 11
11 8 7 7 7 7 7 7 3 2 4 9 12 13 13 13 11 8 4 13 14 16 17 19 21 20 21 24 20 12 10 12 11 10 4 9 9 9 8 8 8 8 9 10 10 10 10 9 12 12 12 12 10 8 10 9 8 7 7 8 8 11 16 12 10 13 15 16 15 12 10 7 7 7 12 15 15 14 14 13 12 12 13 12 11 10
9 7 6 10 10 10 11 5 1 1 3 5 12 14 11 13 7 8 14 13 17 14 12 13 17 17 19 17 14 9 12 13 14 14 14 14 12 10 10 7 8 9 10 10 10 11 12 13 12 12 13 12 12 11 10 10 10 10 10 10 11 12 7 14 14 13 13 14 14 12 11 8 12 11 12 13 14 15 14 13 13 13 13 13 11 11
9 7 5 7 10 11 7 6 4 1 3 6 11 13 10 8 9 14 9 10 12 14 12 12 14 14 14 15 14 13 14 16 18 16 17 18 16 13 11 11 11 11 10 11 10 11 11 12 11 12 13 13 14 13 11 10 10 10 10 12 13 14 11 8 16 16 10 11 15 15 14 12 13 18 17 15 14 13 13 13 13 13 13 12 12 13
7 6 8 8 7 5 5 7 3 6 1 8 15 8 5 6 4 7 10 12 10 11 12 11 12 17 17 18 18 14 15 16 13 14 15 17 17 15 15 13 12 12 11 10 11 10 10 10 12 13 13 13 14 13 12 12 12 11 11 13 12 10 12 10 10 15 18 15 11 13 15 15 17 16 13 14 15 15 15 14 14 13 14 13 13 14
9 6 6 4 5 5 6 6 4 3 10 12 10 7 12 6 6 8 9 11 10 8 10 11 12 10 9 7 13 14 14 14 14 12 12 13 13 14 13 13 12 13 12 11 10 10 10 11 11 12 13 14 13 13 13 12 13 13 14 14 11 10 10 11 12 13 16 16 16 14 13 15 17 17 15 17 16 16 16 15 14 14 14 15 14 13
8 6 5 6 2 1 0 2 5 9 9 7 2 8 8 10 10 11 9 9 9 8 8 9 14 15 12 12 16 18 14 11 11 10 8 9 11 12 13 13 12 11 10 9 10 10 10 12 12 12 14 14 16 15 14 13 14 15 16 14 12 12 12 12 13 12 13 15 16 14 12 13 14 14 16 17 17 16 16 16 16 15 14 14 14 14
5 8 9 4 2 6 3 7 8 6 11 11 6 3 7 12 12 8 9 9 8 8 8 8 12 15 15 11 13 14 18 17 10 8 5 8 10 11 10 10 8 8 9 10 11 11 11 11 13 15 16 17 18 17 15 15 15 16 16 14 13 13 13 13 13 14 12 11 11 12 13 15 16 16 16 18 15 16 15 17 16 16 15 15 15 14
8 10 9 6 11 5 3 6 12 14 13 12 13 8 5 11 12 11 9 8 8 11 10 9 11 13 13 10 10 11 13 17 17 11 5 6 10 12 11 10 10 9 9 10 10 10 11 12 13 15 17 19 18 17 17 16 16 16 14 13 13 13 13 13 13 13 11 15 14 13 12 13 14 14 14 17 15 14 14 14 15 15 15 14 15 15
6 11 9 9 10 6 6 9 14 15 10 7 11 13 8 9 12 13 10 8 7 9 10 11 11 11 11 12 12 11 13 12 13 15 12 9 9 11 12 11 10 9 9 11 13 12 12 13 14 15 17 19 19 17 16 15 16 16 14 12 10 11 9 6 5 6 10 14 13 11 10 13 13 15 14 16 16 14 14 14 15 15 16 16 16 16
9 10 5 9 8 8 7 10 14 14 6 12 13 11 12 9 11 15 17 17 13 11 10 11 10 12 13 14 14 14 14 16 15 13 14 14 15 14 13 8 5 6 5 9 11 7 5 6 6 10 15 19 19 18 16 15 15 13 12 12 11 11 8 6 6 6 7 6 15 17 15 13 13 15 14 14 16 15 16 17 16 17 15 16 15 15
7 6 8 8 6 6 9 14 15 12 8 12 15 10 7 14 14 15 15 15 15 16 15 14 14 11 12 12 14 15 15 12 14 14 15 14 16 18 16 14 16 18 14 10 11 10 4 4 6 10 15 12 14 15 14 12 12 10 9 7 6 7 10 10 8 8 10 11 9 7 5 7 8 13 15 15 16 15 13 14 16 14 13 12 16 17
6 8 7 6 6 8 11 12 12 11 9 7 12 14 14 14 14 15 17 18 17 15 15 15 16 16 16 15 13 15 17 16 17 15 15 13 14 15 17 17 16 14 12 10 13 15 14 13 11 12 14 13 11 3 3 6 8 8 8 5 5 6 7 8 8 8 7 8 11 13 12 11 9 12 13 14 14 14 13 11 4 3 9 15 14 14
Wind_Direction
226 225 238 237 236 237 254 251 259 256 262 269 273 279 280 282 281 280 275 276 284 292 284 282 290 256 255 253 252 248 240 253 249 229 241 226 220 221 226 240 223 226 234 199 160 155 158 151 148 140 150 147 148 155 173 172 165 161 162 163 167 166 167 173 172 171 168 179 187 191 177 168 169 182 180 169 174 177 171 173 157 163 165 183 174 179
177 259 260 266 274 282 285 289 286 281 275 276 281 279 277 275 278 277 281 290 266 278 277 273 283 275 237 239 248 254 241 231 249 252 231 237 232 214 223 234 228 224 225 211 169 137 142 137 145 146 149 159 156 175 163 168 173 166 165 166 167 163 173 178 177 167 167 179 192 184 175 170 169 182 182 173 172 172 161 172 152 165 161 185 173 179
241 254 257 253 261 269 264 262 281 287 284 278 272 274 276 268 273 276 282 279 288 282 279 277 267 274 281 278 278 261 269 262 232 244 250 235 234 219 219 228 225 213 216 206 171 148 143 133 141 147 155 163 170 172 165 166 173 174 172 168 169 169 175 176 174 170 170 173 186 190 178 171 165 187 183 181 163 161 159 175 156 161 163 186 172 181
249 246 257 291 311 304 306 293 275 278 276 275 269 264 262 269 270 287 284 284 270 252 260 261 266 254 246 253 256 259 269 266 268 244 248 252 227 226 225 225 212 206 235 217 168 168 159 149 148 149 158 165 171 171 163 163 172 174 175 176 170 173 175 177 178 169 164 172 176 188 172 163 165 176 182 157 153 166 167 171 161 165 162 184 174 188
272 282 293 288 283 280 256 250 264 275 273 257 254 259 264 268 274 284 292 294 296 286 295 295 270 255 255 255 247 254 268 273 271 277 274 259 249 210 227 220 192 213 218 232 180 174 178 156 161 162 166 166 169 175 170 168 177 177 176 183 175 171 176 181 178 168 159 166 172 172 164 167 163 176 185 166 175 178 177 160 167 164 169 183 179 187
262 260 267 271 266 261 265 258 255 265 267 269 261 261 268 276 279 273 274 276 262 273 260 264 275 260 248 250 248 232 231 253 269 268 267 268 232 231 221 197 188 200 235 252 222 183 184 160 160 159 166 170 171 177 172 172 179 171 174 180 176 172 172 177 180 165 157 167 172 173 172 182 187 184 187 185 176 174 182 170 165 161 175 181 183 187
295 303 302 291 287 283 284 288 272 246 262 269 263 259 259 263 268 279 273 261 270 274 265 237 253 266 259 252 246 244 263 257 257 256 258 261 274 246 231 201 198 193 216 248 249 214 174 154 160 164 167 171 173 175 171 171 174 172 171 176 181 178 175 175 175 166 160 169 184 182 181 187 191 188 188 169 168 176 171 167 169 164 176 184 184 186
260 259 254 266 267 268 269 262 265 266 263 260 276 277 280 281 280 270 277 287 289 278 279 280 269 259 254 255 268 256 228 242 252 245 245 251 259 274 265 201 184 184 218 247 228 226 167 165 168 168 171 173 176 174 171 171 172 175 174 176 180 177 177 179 172 170 168 174 182 183 181 186 194 190 179 172 175 178 168 171 174 167 177 184 187 184
298 297 294 288 283 280 274 272 267 267 269 278 281 283 282 282 278 272 269 274 273 278 275 257 250 249 248 251 255 256 247 233 236 244 233 239 247 249 257 254 220 192 208 243 239 213 174 171 170 168 176 175 173 172 172 173 175 176 175 176 180 181 178 175 176 173 172 172 179 185 182 184 195 183 174 179 174 179 170 172 176 175 174 183 184 186
287 297 300 299 294 280 282 291 293 274 268 265 267 266 265 267 275 275 268 257 256 264 257 253 257 267 260 249 237 244 258 255 231 225 238 230 230 242 251 233 216 207 219 244 240 216 208 179 174 171 172 176 172 172 170 171 172 176 171 176 181 183 185 173 176 176 169 167 176 188 182 185 187 189 171 184 174 180 178 173 177 175 175 181 179 181
286 291 295 282 276 283 284 278 275 273 271 285 285 284 277 268 263 259 255 257 262 247 248 252 254 258 268 258 254 240 238 252 251 226 219 227 227 223 235 255 255 215 216 239 249 246 213 188 174 165 171 173 169 166 168 170 174 174 174 175 180 187 186 181 177 174 165 169 181 184 178 178 189 194 175 185 179 178 184 176 174 176 179 179 178 174
271 276 264 259 260 257 268 272 263 271 282 286 282 272 273 265 265 258 254 251 252 252 253 246 250 247 257 249 259 264 246 240 254 251 216 214 222 223 217 224 232 231 230 227 225 242 249 212 179 173 175 170 167 166 169 168 169 179 174 175 181 187 192 183 177 171 166 170 179 180 177 180 191 199 184 191 182 182 183 177 169 175 180 178 174 178
302 295 317 291 293 286 260 265 265 253 255 257 258 257 258 266 263 257 244 241 235 249 262 256 240 252 248 261 270 265 264 245 234 250 254 231 213 216 218 212 216 217 226 226 213 216 231 238 191 173 169 164 163 169 169 168 172 179 176 175 183 189 191 177 170 168 170 173 177 178 179 185 194 203 188 191 184 184 186 180 168 173 181 175 175 182
302 315 307 335 328 16 314 275 267 255 245 260 251 253 251 255 251 254 250 253 258 254 256 255 256 256 258 258 253 260 262 264 249 225 234 254 247 206 209 214 210 207 212 216 208 204 213 224 222 182 160 156 165 172 169 169 175 178 182 177 183 190 189 175 167 168 170 178 177 175 178 188 195 204 191 192 187 186 188 184 173 174 177 179 179 180
317 312 331 344 346 357 310 268 260 268 265 243 283 297 264 258 262 270 259 249 258 282 283 267 246 235 245 239 243 259 264 266 263 261 243 230 242 242 219 212 210 214 208 205 206 201 200 208 217 202 165 174 174 172 173 174 175 179 183 179 182 188 188 171 163 167 175 180 177 176 181 189 195 201 196 192 188 183 187 186 172 174 176 181 180 184
294 293 293 347 329 309 293 296 291 279 267 264 259 249 258 252 189 241 277 284 284 313 293 266 262 284 259 275 248 247 258 260 266 262 261 259 231 223 227 238 231 208 209 202 204 200 196 197 206 204 159 161 166 168 171 173 174 181 183 183 183 190 192 174 159 164 177 183 182 180 186 192 195 193 196 191 183 182 187 188 175 175 177 178 179 178
301 268 322 315 298 282 278 269 263 268 265 276 259 237 251 316 320 304 260 264 287 280 263 255 264 266 281 274 261 259 271 274 275 283 274 259 261 258 217 219 234 223 207 206 201 196 191 192 197 201 174 161 165 165 171 173 175 178 181 183 183 188 197 181 161 164 175 185 185 189 191 194 194 190 195 191 182 179 186 188 181 176 175 177 177 175
320 294 302 285 297 302 288 266 257 255 265 284 259 272 306 309 288 268 281 303 252 255 264 266 263 263 256 265 249 237 237 250 254 255 263 261 249 252 240 228 243 234 223 202 186 181 203 202 211 203 184 168 172 171 173 172 175 177 178 183 181 184 193 183 166 168 170 178 188 190 199 200 195 190 192 194 180 178 184 187 186 175 174 181 176 174
33 306 336 305 292 320 341 310 274 251 244 241 257 17 306 287 267 234 238 253 274 264 273 264 259 259 256 258 251 250 243 248 247 252 267 259 231 241 232 236 254 257 251 203 176 178 190 201 213 219 203 169 177 178 173 174 173 176 183 183 182 185 189 178 169 167 170 179 185 190 199 199 195 189 189 193 183 176 185 188 188 182 176 176 175 176
114 275 297 258 313 326 302 283 276 283 281 259 300 254 295 282 262 274 247 280 270 272 286 279 269 265 252 270 278 274 267 251 250 263 265 277 248 228 238 230 245 256 267 226 198 183 190 202 207 205 211 170 174 174 174 173 174 178 183 181 181 184 185 182 171 167 172 182 185 191 197 200 196 192 190 191 184 179 182 188 186 184 175 175 172 173
277 193 281 296 316 306 296 315 291 295 289 262 240 262 243 236 285 314 297 257 249 265 261 276 286 273 279 286 295 294 278 273 271 257 259 264 263 256 260 240 232 244 242 245 240 207 188 193 211 213 201 183 175 172 170 172 176 181 183 185 182 180 182 184 178 167 176 181 190 193 197 194 192 193 193 193 183 179 180 185 189 185 176 166 172 174
277 220 263 299 310 305 296 309 307 289 272 182 217 252 241 286 292 278 263 245 254 255 260 279 272 284 291 309 274 268 297 287 263 256 251 251 272 308 305 284 228 224 236 211 218 240 216 188 198 225 226 204 177 178 177 172 179 178 180 183 183 183 184 183 183 179 177 184 189 195 199 192 191 193 194 191 183 179 178 185 185 179 173 172 171 177
224 293 281 283 283 288 290 297 320 303 326 186 222 254 232 238 248 243 259 271 284 266 274 274 307 269 289 328 344 342 302 290 300 322 328 324 313 307 307 313 292 220 213 210 203 213 224 236 196 203 220 226 172 187 178 181 180 181 184 182 184 187 188 185 187 187 182 186 191 196 199 193 190 191 191 189 186 179 181 181 182 178 175 172 173 178
37 268 282 274 286 283 283 79 71 76 66 241 237 237 247 250 244 254 266 294 289 280 268 266 252 274 261 343 19 341 339 332 336 313 297 295 322 313 317 320 315 277 211 210 201 202 204 215 210 195 206 226 205 183 192 180 183 183 185 189 189 193 192 189 189 189 191 190 194 195 197 196 189 187 189 191 184 180 179 178 180 178 176 173 169 174
294 211 264 297 300 304 294 116 55 40 53 282 286 284 275 274 273 275 290 289 267 257 255 262 259 263 252 43 6 294 306 294 297 313 325 325 329 332 327 322 313 297 233 203 198 193 197 205 207 205 203 211 223 212 185 187 183 179 177 181 185 184 196 199 190 190 192 192 194 196 197 195 188 186 189 191 184 179 179 176 178 178 177 170 167 171
224 279 297 298 311 317 320 313 321 315 316 312 281 270 267 272 274 278 263 259 264 268 259 244 258 267 278 331 334 313 293 292 326 300 305 315 333 337 339 323 315 292 223 199 187 181 190 201 212 210 204 205 217 220 170 181 186 183 177 179 187 188 187 206 219 200 191 194 195 196 197 194 188 187 188 186 182 181 182 174 175 177 177 173 167 171
278 270 264 263 266 276 275 283 282 292 294 283 291 288 282 280 273 260 271 274 260 276 273 260 262 275 277 288 271 259 265 269 302 337 355 350 345 347 339 319 300 309 296 228 203 188 191 202 213 208 196 211 207 221 176 181 180 178 177 181 180 181 188 192 199 222 206 194 196 196 195 191 188 186 185 182 181 178 179 176 177 177 179 176 173 172
246 285 267 262 255 252 261 268 277 287 284 281 284 285 288 289 287 279 266 259 271 279 269 263 267 276 291 292 278 312 319 273 19 5 349 347 342 338 328 295 293 310 322 304 223 241 235 222 206 198 211 231 243 229 170 170 182 181 180 181 184 188 190 192 191 204 221 202 194 196 193 190 186 185 184 181 177 174 178 178 178 177 177 179 179 176
258 271 282 274 265 255 260 266 271 276 279 282 283 284 291 294 290 278 257 269 277 264 270 283 290 288 290 284 294 278 272 293 132 15 17 349 319 317 295 292 296 302 311 315 281 216 222 220 215 196 214 232 240 247 197 178 185 187 182 179 180 176 187 186 188 200 221 218 196 194 191 187 188 187 183 182 176 173 178 180 179 177 179 179 178 179
258 248 268 277 287 285 272 268 270 276 278 282 282 291 288 295 314 308 295 281 269 271 274 278 276 272 267 267 279 291 283 310 124 76 49 343 296 290 280 290 278 274 272 277 278 253 208 213 208 210 207 221 230 234 226 167 184 192 188 189 189 193 193 189 190 209 215 221 202 190 184 185 185 186 183 182 179 176 179 178 178 178 178 181 181 179
131 275 293 300 295 289 294 300 305 298 290 289 294 304 311 329 333 332 319 297 284 274 276 276 275 276 269 267 271 269 266 238 144 163 152 223 256 261 260 263 275 228 219 213 214 203 236 212 207 201 207 216 219 236 232 185 212 185 187 189 189 189 189 183 194 197 205 227 202 193 186 184 184 184 187 184 181 176 178 179 177 180 179 182 183 182
175 275 299 294 308 305 352 1 347 315 311 301 327 345 339 335 336 335 320 310 304 299 301 293 285 277 278 268 264 259 260 257 194 172 183 199 229 242 242 252 254 268 255 235 215 221 220 216 227 222 202 198 215 234 239 204 124 256 213 185 184 189 184 182 176 187 185 247 239 195 189 184 182 183 186 187 183 177 179 178 175 178 179 181 187 185
277 284 306 313 315 291 310 339 344 315 297 359 1 324 316 308 317 317 310 309 303 316 308 299 294 304 304 311 292 272 267 253 237 224 198 204 223 230 233 234 247 258 247 215 235 220 226 231 217 218 227 214 207 209 219 219 186 185 228 224 209 196 192 183 177 192 196 197 228 224 191 183 185 186 186 186 183 178 178 181 176 177 179 184 188 184
259 271 281 299 301 293 312 333 338 305 26 0 315 292 309 303 314 309 308 312 306 317 318 319 321 321 304 280 285 310 298 286 285 259 216 222 213 219 235 266 269 264 278 239 220 237 235 234 238 230 202 222 247 234 206 205 219 179 186 217 283 276 208 185 186 193 201 196 196 212 199 193 186 190 189 187 184 178 180 182 179 178 177 179 185 187
278 281 278 303 284 301 312 318 298 26 19 323 295 281 283 297 300 303 302 314 8 16 359 350 341 337 329 323 308 285 274 285 284 277 272 239 211 204 212 228 244 253 267 306 318 298 286 278 293 289 267 219 209 216 233 215 202 203 195 165 172 200 284 241 193 195 200 200 199 194 192 204 192 190 190 188 185 180 181 180 178 179 178 181 186 187
274 275 315 279 269 280 301 345 5 1 352 330 304 270 307 307 329 330 319 43 18 15 0 347 337 331 331 328 323 323 316 297 271 267 258 268 272 239 215 219 229 245 275 288 279 283 288 289 285 284 285 288 282 234 214 229 219 224 215 170 170 187 198 119 293 214 199 220 201 195 190 187 190 198 190 188 187 182 181 179 179 179 179 180 184 188
231 256 211 297 2 318 316 311 346 178 291 344 356 359 353 349 332 339 323 347 21 1 356 337 333 332 329 323 320 317 318 321 292 255 243 246 241 241 253 267 286 285 264 237 229 244 256 260 266 286 308 303 303 288 254 215 211 219 225 166 191 187 200 179 192 229 225 211 219 209 192 192 183 189 187 193 184 181 180 180 178 179 176 178 181 182
332 333 336 320 329 305 329 327 354 356 8 3 342 320 345 340 328 326 336 302 8 347 343 337 327 326 325 320 315 315 319 311 305 276 247 236 232 237 237 236 242 252 260 260 250 250 249 257 272 269 270 286 283 281 280 267 244 231 222 224 182 205 200 192 197 193 201 205 212 211 195 193 188 182 183 184 187 185 183 179 177 178 175 179 179 182
346 342 318 327 345 343 347 356 30 8 15 324 316 328 329 333 320 322 306 357 347 332 328 330 321 316 313 310 307 308 307 293 276 284 356 14 15 2 336 282 272 270 268 279 278 259 265 279 283 277 266 250 250 259 267 269 258 240 234 243 191 197 206 213 208 200 198 202 205 207 195 190 187 184 182 185 186 185 181 180 178 177 174 180 179 183
355 342 327 4 348 6 347 357 28 43 347 327 328 325 329 307 331 297 355 354 329 330 317 312 309 304 309 314 314 286 270 263 272 272 320 335 352 333 330 319 306 296 301 293 285 283 276 267 260 264 272 273 262 246 249 254 250 247 249 247 253 224 208 207 215 204 200 199 201 203 195 156 155 200 198 187 185 183 182 176 175 174 176 178 179 177
353 339 346 1 355 349 357 351 107 160 213 300 331 329 313 315 305 352 16 299 306 311 322 329 310 305 302 304 331 309 273 267 270 282 298 304 312 309 297 280 276 288 288 282 278 288 283 275 271 270 272 271 269 261 246 241 238 235 228 232 245 253 214 186 215 221 205 198 196 193 187 157 148 186 225 213 184 181 179 177 178 176 176 175 174 175
355 341 346 357 355 346 359 358 355 18 237 298 333 323 303 298 15 2 291 270 289 306 317 315 312 300 292 327 340 338 328 311 294 295 297 300 298 287 283 289 283 269 262 268 277 287 287 284 285 283 279 272 273 276 269 247 239 238 241 231 223 231 251 196 202 209 217 209 197 193 187 174 178 195 200 198 186 179 180 182 179 177 176 175 174 177
354 324 351 0 340 333 14 359 338 359 1 335 324 318 327 21 5 248 283 290 289 287 310 326 335 332 342 342 336 319 322 323 308 290 290 292 292 292 291 288 286 284 281 276 273 271 279 284 280 274 269 267 268 268 265 268 260 244 236 237 235 225 224 234 212 204 199 203 189 191 189 182 189 193 191 185 179 179 184 183 181 178 176 176 176 177
12 350 350 355 37 343 0 11 7 279 276 305 338 342 331 319 273 282 293 294 297 301 317 326 328 328 321 317 322 311 306 316 331 316 295 291 292 297 298 295 289 285 283 277 276 276 275 271 270 272 277 275 269 259 257 256 254 249 245 243 236 228 223 223 232 217 206 203 200 194 193 189 188 186 184 179 178 181 183 183 183 181 181 179 178 181
26 22 342 306 73 111 267 253 244 256 264 286 297 302 302 315 308 300 279 272 307 319 316 319 320 320 329 338 340 342 342 338 319 308 316 312 310 305 297 291 287 284 284 284 280 277 269 266 263 263 265 265 263 260 256 249 249 248 244 241 238 232 226 225 227 230 209 199 196 191 193 184 182 181 180 177 176 178 183 184 182 183 185 182 183 181
0 11 343 335 65 155 218 238 265 321 343 351 337 264 301 310 311 286 317 322 354 337 317 312 310 321 329 339 337 344 342 347 352 339 345 352 353 347 336 318 303 298 286 279 274 267 264 263 265 265 263 259 255 255 250 247 244 246 242 240 237 233 233 228 226 231 213 196 186 185 194 191 184 181 180 177 178 181 184 184 184 185 184 186 185 185
333 8 342 358 347 332 352 6 355 351 340 358 345 339 3 330 311 319 327 306 10 351 342 326 323 324 329 334 337 331 344 348 351 349 318 1 358 357 356 342 323 307 283 278 275 278 273 265 262 259 257 255 251 247 246 244 242 246 249 240 236 237 233 233 232 231 217 184 185 190 199 198 189 183 182 181 183 184 187 185 187 184 183 185 185 187
337 349 315 358 333 349 354 358 354 344 334 352 350 345 358 320 303 326 345 321 358 357 347 343 341 341 336 339 338 351 345 349 356 356 10 10 13 10 351 329 317 315 317 318 310 294 286 282 277 273 263 255 249 245 243 241 242 243 245 241 234 243 243 238 259 265 247 178 165 162 202 203 205 195 182 187 185 186 189 189 189 187 185 186 189 189
296 310 349 334 328 336 350 353 349 335 343 347 330 357 352 327 339 354 347 342 353 351 354 358 360 350 349 350 350 353 355 353 351 355 6 9 6 359 348 330 295 310 330 331 301 278 287 298 285 282 289 267 254 245 240 239 239 239 240 240 232 229 213 196 155 118 74 112 153 171 195 200 194 204 196 186 189 193 192 188 189 192 192 195 195 194
311 354 336 336 343 347 352 342 353 347 337 337 340 2 339 347 355 351 349 347 351 354 354 355 356 1 358 357 356 357 358 353 358 359 3 4 2 358 355 1 4 2 356 342 346 350 333 329 337 340 320 288 233 233 238 239 240 231 236 235 225 205 203 194 187 158 154 147 155 178 201 238 234 219 204 191 189 192 197 204 203 199 194 194 196 194
340 351 344 351 338 332 336 340 347 340 323 317 329 353 351 357 351 357 353 351 354 356 347 354 359 358 3 359 3 3 360 360 2 2 3 0 0 359 350 357 8 3 346 356 12 11 357 2 7 360 342 350 8 343 260 250 235 238 237 222 199 195 198 190 182 177 173 163 169 180 185 189 207 226 221 203 191 191 189 184 178 326 218 203 191 188